Вернуться в каталог

ARIANE 5 R/B

АктивенGTO
NORAD 28913·ROCKET BODY·🇫🇷 France

Запущен Dec 21, 2005 с Guiana Space Centre

Loading…

TLE

СвежийSource: Space-Track

Эпоха: Sep 14, 2026, 15:24 UTC

1 28913U 05049C   26257.64185516 -.00000088  00000-0  13718-2 0  9998
2 28913   4.0105 285.7378 7147921  39.7029 127.6370  2.24899561170400

Отслеживайте ARIANE 5 R/B в реальном времени с AllMySat

Download on the App Store